Location: Walnut Street Observatory
(41.0583°N, 76.2295°W)
Time: 18:21:34
(UTC-04:00)

Daily predictions for brighter satellites

Satellite Brightness Start Highest point End
(mag) Time Altitude Azimuth Time Altitude Azimuth Time Altitude Azimuth
METEOR-M 4.4 19:43:55 10° S 19:49:15 79° WSW 19:54:37 10° NNW
ALOS 2.3 19:48:01 10° SSE 19:52:37 62° ENE 19:57:14 10° N
Cosmos 1758 4.2 19:49:54 10° SSE 19:53:20 28° E 19:56:47 10° NNE
HJ-1C 3.6 19:51:48 10° SSE 19:55:05 51° ENE 19:58:25 10° N
Cosmos 1937 Rocket 4.2 19:50:32 10° SSW 19:55:43 60° WNW 20:00:59 10° NNE
Cosmos 1934 Rocket 4.0 19:53:54 10° S 20:00:02 84° E 20:06:08 10° N
CZ-3B DEB 3.4 19:47:49 10° SW 20:00:04 68° NW 20:05:33 10° NE
Cosmos 1953 3.1 19:56:53 10° SSE 20:00:30 32° E 20:04:08 10° NNE
GPS 2-05 Rocket1 4.4 19:57:39 10° SW 20:00:34 24° SSE 20:03:27 10° ESE
Cosmos 1271 Rocket 4.4 19:59:10 10° SE 20:01:40 16° E 20:04:13 10° NE
SL-27 R/B 3.1 19:58:22 10° NNW 20:01:55 60° WSW 20:05:29 10° S
Helios 1B rocket 3.7 19:59:31 10° NE 20:02:32 19° E 20:05:32 10° SE
Okean 3 Rocket 3.7 19:59:11 10° N 20:03:31 54° E 20:07:50 10° SSE
Cosmos 1766 3.5 20:03:36 10° SSW 20:07:28 75° W 20:11:22 10° N
Cosmos 1076 Rocket 4.0 20:04:18 10° N 20:08:16 37° ENE 20:12:13 10° SE
Lacrosse 4 Rocket 4.1 20:06:26 10° WSW 20:09:33 21° NW 20:12:43 10° N
Meteor 1-29 4.5 20:10:59 10° NE 20:13:22 17° E 20:15:36 11° SE
Cosmos 1674 3.7 20:10:16 10° NNE 20:13:31 26° ENE 20:16:31 11° SE
Abrixas 2.2 20:10:43 10° WNW 20:13:34 86° SSW 20:15:43 16° ESE
Tiangong 1 3.3 20:12:25 10° WSW 20:14:32 18° SSW 20:16:37 10° SSE
Cosmos 1818 3.5 20:13:13 10° NNW 20:18:42 76° ENE 20:24:06 10° SE
Lacrosse 5 rocket 2.5 20:16:53 10° NNW 20:20:16 26° NNE 20:22:31 16° E
Helios 1A 3.6 20:16:35 10° SE 20:20:22 35° ENE 20:24:11 10° N
COSMOS 2487 3.1 20:17:01 10° N 20:20:23 38° ENE 20:22:57 15° SE
CZ-4B DEB 4.2 20:20:23 18° E 20:21:12 19° ENE 20:23:31 10° NNE
Cosmos 1269 Rocket 4.2 20:17:08 10° N 20:22:20 55° ENE 20:27:30 10° SE
ISS -3.2 20:24:49 10° SSW 20:27:49 35° SE 20:29:21 22° E
Cosmos 468 4.5 20:22:39 10° NNW 20:27:55 89° ENE 20:33:10 10° SSE
In-Cosmos 22 4.3 20:23:21 10° NNW 20:28:39 74° W 20:33:53 10° S
Cosmos 1766 Rocket 3.8 20:25:02 10° N 20:29:22 47° ENE 20:33:41 10° SSE
GP-B 3.4 20:25:46 10° SSE 20:29:58 44° E 20:34:12 10° NNE
Cosmos 372 Rocket 4.0 20:25:42 10° S 20:30:41 57° ESE 20:35:45 10° NNE
Cosmos 2344 4.3 20:24:21 10° SW 20:31:56 61° NW 20:40:35 10° NNE
USA 186 1.1 20:33:16 41° E 20:33:28 43° ENE 20:35:36 10° N
CZ-2D R/B 3.2 20:29:45 10° SSE 20:33:37 80° ENE 20:37:31 10° N
Meteor 1-4 Rocket 2.4 20:30:31 10° S 20:33:59 89° W 20:37:29 10° N
USA 215 3.9 20:28:38 10° ENE 20:34:24 33° SE 20:40:08 10° S
Cosmos-2242 3.3 20:31:26 10° SSE 20:35:27 44° E 20:39:31 10° NNE
Cosmos 158 Rocket 4.0 20:31:27 10° NNW 20:36:33 61° ENE 20:40:55 15° SSE
Resurs 01 Rocket 1.9 20:33:20 10° S 20:37:43 69° WSW 20:42:09 10° NNW
Cosmos 1805 3.7 20:34:02 10° SSW 20:37:54 64° W 20:41:47 10° N
Meteor 1-21 Rocket 4.3 20:32:16 10° N 20:38:08 76° E 20:44:02 10° SSE
Cosmos 2098 Rocket 4.4 20:36:24 10° S 20:43:41 87° E 20:51:19 10° N
Cosmos 1544 4.1 20:41:04 10° SSW 20:44:36 49° W 20:48:11 10° N
Cosmos 1833 Rocket 2.6 20:40:09 10° NNW 20:45:48 75° ENE 20:50:10 17° SSE
Lacrosse 5 3.5 20:42:15 10° W 20:46:49 33° NNW 20:51:23 10° NNE
Cosmos 2100 Rocket 4.0 20:42:26 10° S 20:48:38 60° E 20:54:54 10° NNE
Spot 2 Rocket 4.1 20:45:34 10° S 20:50:36 59° W 20:55:40 10° NNW
Cosmos 2278 Rocket 3.9 20:48:23 10° SW 20:53:34 36° WNW 20:58:47 10° N
Cosmos 1867 3.8 20:49:14 10° SW 20:54:40 72° WNW 21:00:09 10° NNE
Cosmos 1470 2.6 20:50:57 10° S 20:54:55 71° E 20:58:53 10° NNE
Cosmos 1733 3.1 20:54:46 10° S 20:58:37 75° E 21:02:30 10° NNE
BREEZE-M DEB (TANK) 3.2 20:56:04 10° SW 20:59:25 64° SE 21:10:26 10° ENE
ATLAS 5 CENTAUR R/B 1.7 20:55:39 10° SSW 21:00:19 87° SE 21:05:26 10° NE
Cosmos 1743 Rocket 3.8 20:56:23 10° N 21:00:42 48° E 21:01:43 40° ESE
Cosmos 1500 Rocket 4.1 20:58:04 10° N 21:01:59 35° ENE 21:01:59 35° ENE
Cosmos 1340 Rocket 2.6 21:02:03 10° N 21:06:05 77° E 21:07:16 44° SSE
Envisat 2.9 21:05:45 26° SSE 21:08:41 77° ENE 21:13:47 10° N
SJ-11-01 4.2 21:07:56 34° SSE 21:10:00 74° ENE 21:14:44 10° N
Cosmos 2297 4.4 21:04:53 10° SW 21:10:29 55° WNW 21:16:09 10° NNE
Cosmos 1802 Rocket 3.8 21:05:02 10° S 21:11:06 71° E 21:17:15 10° NNE
Cosmos 1184 Rocket 3.8 21:12:45 10° N 21:15:03 37° NNE 21:15:03 37° NNE
H-2A R/B 3.9 21:21:37 17° NE 21:21:37 17° NE 21:24:06 10° NNE
Cosmos 2058 4.4 21:19:16 10° N 21:21:29 25° NE 21:21:29 25° NE
Cosmos 2082 Rocket 3.0 21:18:18 10° NW 21:23:45 48° WSW 21:27:53 17° S
ERS-1 Rocket 3.0 21:23:19 54° ESE 21:23:54 58° ENE 21:28:51 10° N
CZ-3 Stage 3 3.7 20:54:21 10° W 21:26:00 49° SSW 21:29:16 34° SSE
Cosmos 2061 Rocket 4.1 21:20:07 10° S 21:26:30 82° W 21:32:59 10° N
Meteor 1-11 4.2 21:23:00 10° N 21:28:32 59° ENE 21:29:11 55° ESE
MetOp-A 4.5 21:28:59 44° ENE 21:28:59 44° ENE 21:34:02 10° N
SL-14 R/B 3.9 21:27:34 10° N 21:30:24 46° NNE 21:30:24 46° NNE
ARGOS 4.0 21:32:39 33° NE 21:32:39 33° NE 21:36:49 10° N
Timation 2 Rocket 4.5 21:26:13 10° NNW 21:32:18 55° WSW 21:35:50 24° S
Meteor 1-16 Rocket 4.2 21:29:39 22° S 21:33:35 79° E 21:39:32 10° NNE
Cosmos 2151 3.7 21:29:34 10° N 21:32:36 41° NNE 21:32:36 41° NNE
Cosmos 1842 Rocket 3.4 21:34:36 89° SSW 21:34:37 89° WSW 21:39:03 10° N
Cosmos 1328 4.1 21:32:25 10° N 21:35:46 61° NNW 21:35:46 61° NNW
Cosmos 1459 Rocket 4.4 21:31:13 10° SSW 21:37:24 61° W 21:43:31 10° N
Cosmos 1271 Rocket 4.4 21:33:44 10° SW 21:37:24 34° WNW 21:41:07 10° N
Helios 1B rocket 4.2 21:34:12 10° N 21:37:55 33° WNW 21:41:36 10° SW
Cosmos 1939 Rocket 3.8 21:44:15 44° WSW 21:44:46 47° W 21:48:48 10° NNW
YAOGAN 6 4.0 21:47:36 35° NNW 21:47:36 35° NNW 21:49:53 10° NNW
Cosmos 1864 Rocket 4.4 21:48:07 50° S 21:49:55 81° E 21:56:15 10° N
Meteor 2-1 Rocket 4.5 21:51:16 53° NE 21:51:16 53° NE 21:55:48 10° NNE
Lacrosse 5 rocket 3.0 21:55:58 10° WNW 21:58:14 28° W 21:58:14 28° W
Cosmos 2251 Rocket 3.7 21:56:01 10° NNW 22:01:18 66° WSW 22:01:24 66° WSW
ISS -0.8 22:01:23 10° W 22:02:05 15° W 22:02:05 15° W
CZ-3B DEB 4.1 22:07:38 10° WNW 22:12:21 18° NNW 22:14:42 13° N
Cosmos 2369 Rocket 4.0 22:18:38 20° NNE 22:18:38 20° NNE 22:20:19 10° NNE
USA 215 3.4 22:11:11 10° NE 22:17:42 71° NW 22:24:09 10° WSW
SPOT 5 4.0 22:33:35 46° NW 22:33:35 46° NW 22:37:31 10° NNW
Terra 4.2 22:47:55 18° N 22:47:55 18° N 22:49:07 10° N
USA 267 3.7 22:50:51 57° N 22:50:51 57° N 22:56:14 10° NW
H-2A R/B 3.8 23:02:14 30° NNW 23:02:14 30° NNW 23:04:52 10° NNW
